RH
89 90 88 86 87 88 89 87 83 85 83 82 76 76 80 85 87 90 97 95 94 91
91 89 88 87 88 86 87 87 87 86 88 85 83 79 79 84 86 88 93 96 96 91
88 86 87 86 86 85 85 86 88 89 87 87 85 82 79 81 83 87 88 94 96 92
90 86 84 86 83 83 84 85 88 88 89 88 88 81 84 80 80 84 88 87 97 95
91 86 88 86 82 79 82 83 87 88 90 88 87 86 88 85 82 84 88 86 95 96
93 93 89 86 83 80 80 82 85 88 91 90 89 89 87 87 86 85 85 87 89 96
93 92 89 86 84 82 81 84 84 87 89 90 90 90 89 89 94 91 84 86 86 95
91 92 90 88 83 80 83 83 84 87 88 88 90 90 96 95 95 96 96 96 88 92
92 91 92 88 82 82 83 83 83 85 89 90 90 87 91 92 96 95 95 96 96 92
92 94 92 87 86 83 83 87 84 82 88 89 88 86 89 92 94 93 96 97 96 94
93 94 91 90 87 83 87 88 86 86 87 90 88 83 86 92 93 92 93 97 97 96
95 93 93 90 86 85 92 86 87 84 85 90 88 79 83 93 94 92 92 93 97 98
94 94 94 90 88 84 90 89 86 85 83 86 88 79 77 91 96 95 91 89 94 99
91 91 91 92 89 87 91 88 86 85 82 83 81 79 76 86 95 96 95 93 94 96
Wind_Speed
6 6 7 8 10 10 11 11 15 15 15 17 18 16 16 13 13 13 13 17 13 13
5 8 9 11 11 10 12 12 15 16 16 17 17 16 16 12 14 15 14 15 14 13
8 8 9 10 12 13 13 14 16 16 16 17 16 16 16 15 14 14 14 12 14 14
7 9 10 10 11 12 14 15 15 16 17 17 17 17 15 17 17 17 16 15 14 17
7 9 9 10 12 13 14 15 15 16 17 17 16 16 16 18 16 17 18 18 16 17
7 6 9 10 12 13 14 15 16 15 16 17 17 17 16 16 18 18 17 17 17 18
7 7 8 10 11 12 13 15 15 16 16 17 17 17 17 17 17 18 19 18 17 17
7 7 7 10 11 12 12 13 14 16 17 16 15 12 17 17 17 19 21 17 17 16
7 7 7 9 11 13 13 13 14 15 15 17 13 28 30 26 18 18 19 16 15 16
7 8 7 9 10 12 14 13 14 15 16 18 17 30 32 33 17 18 18 16 15 15
7 7 7 8 10 11 11 13 13 15 16 17 16 31 32 34 18 16 18 17 15 16
6 7 7 9 11 11 11 13 12 13 17 17 18 30 32 29 17 16 18 17 15 13
6 7 7 9 11 9 9 12 11 15 14 21 18 26 31 28 14 15 14 17 17 19
6 7 8 8 7 10 10 11 12 14 14 16 16 18 30 31 17 14 14 14 14 12
Wind_Direction
321 324 316 314 312 307 305 306 310 310 308 305 306 303 302 297 295 290 287 280 285 281
324 323 313 310 306 303 301 303 305 306 302 302 300 300 300 294 291 291 296 280 285 284
314 311 305 307 302 302 301 304 304 304 304 302 300 298 299 297 291 287 282 287 286 293
304 307 308 303 303 303 303 304 303 304 303 301 299 301 298 295 292 288 288 283 283 284
295 306 304 304 305 307 305 302 300 303 300 299 300 297 294 294 290 287 287 287 284 276
286 291 295 300 304 306 304 302 303 302 299 301 298 298 294 291 286 281 275 274 276 276
284 281 289 296 299 301 303 302 304 301 300 300 299 295 296 288 285 283 278 269 262 267
277 277 285 292 298 301 302 302 299 302 303 302 299 301 307 303 306 296 297 275 263 261
282 284 281 292 303 304 304 306 309 307 303 305 304 309 317 325 313 317 309 296 270 260
274 277 286 294 300 303 306 306 311 310 308 306 307 311 322 325 320 319 312 297 283 269
268 274 287 293 295 299 301 307 309 307 305 305 307 314 322 325 322 317 315 307 288 271
252 275 281 291 298 297 298 309 306 306 307 305 304 315 321 325 321 319 317 312 299 286
253 260 272 279 290 293 296 297 303 303 302 304 305 311 321 325 320 320 318 315 311 296
261 263 261 269 280 291 295 298 301 302 306 305 305 316 319 325 324 321 323 315 315 304